sat.trackr.live / text

‹ back to catalog

STARLINK-34989

NORAD 65251 · 2025-179S

PAYLOAD ACTIVE UNKNOWN

§ Identity

Operator
Country
US
Launch date
2025-08-18
Launch site
AFWTR
Launch vehicle
Mass (kg)
RCS (m²)

Purposes: comms

External: N2YO · Heavens-Above · Gunter

§ Orbital elements

Epoch: 2026-09-20T13:38:49.498944Z

Period
93.91 min
Inclination
97.2831°
Eccentricity
0.0000360
Mean motion
15.33454473 rev/d
Perigee alt
465.3 km
Apogee alt
465.8 km
Semi-major
6,843.7 km
B*
3.3188e-4
RAAN
302.8977°
Arg perigee
64.7730°
Mean anomaly
295.3550°
Rev number
6,149

§ Raw data

STARLINK-349891 65251U 25179S   26263.56862846  .00010657  00000+0  33188-3 0  99912 65251  97.2831 302.8977 0000360  64.7730 295.3550 15.33454473 61491

JSON: /api/v1/satellites/65251 · /tle

For live sub-satellite position, see the globe view (requires WebGL).

§ Visibility from observer

Set your observer location to see the next 7 days of passes ≥ 10°. The values pass through the URL so the page stays shareable.

No JS? Fill the form by hand. The geolocation button needs JavaScript.